2023/02/01 00:00:00,78.9,-4.0
2023/02/01 00:10:00,78.8,-4.0
2023/02/01 00:20:00,78.7,-4.1
2023/02/01 00:30:00,78.6,-3.9
2023/02/01 00:40:00,78.5,-4.0
2023/02/01 00:50:00,78.4,-4.1
2023/02/01 01:00:00,78.4,-4.3
2023/02/01 01:10:00,78.3,-4.2
2023/02/01 01:20:00,78.2,-4.3
2023/02/01 01:30:00,78.1,-4.3
2023/02/01 01:40:00,78.1,-4.5
2023/02/01 01:50:00,78.0,-4.6
2023/02/01 02:00:00,78.0,-4.6
2023/02/01 02:10:00,77.9,-4.6
2023/02/01 02:20:00,77.9,-4.4
2023/02/01 02:30:00,77.8,-4.6
2023/02/01 02:40:00,77.8,-4.5
2023/02/01 02:50:00,77.8,-4.4
2023/02/01 03:00:00,77.7,-4.4
2023/02/01 03:10:00,77.7,-4.2
2023/02/01 03:20:00,77.7,-4.4
2023/02/01 03:30:00,77.6,-4.5
2023/02/01 03:40:00,77.6,-4.5
2023/02/01 03:50:00,77.6,-4.3
2023/02/01 04:00:00,77.6,-4.1
2023/02/01 04:10:00,77.6,-4.4
2023/02/01 04:20:00,77.5,-4.3
2023/02/01 04:30:00,77.5,-4.3
2023/02/01 04:40:00,77.4,-4.4
2023/02/01 04:50:00,77.4,-4.2
2023/02/01 05:00:00,77.4,-4.2
2023/02/01 05:10:00,77.3,-4.2
2023/02/01 05:20:00,77.3,-4.1
2023/02/01 05:30:00,77.2,-3.8
2023/02/01 05:40:00,77.2,-3.8
2023/02/01 05:50:00,77.2,-3.4
2023/02/01 06:00:00,77.1,-3.4
2023/02/01 06:10:00,77.0,-2.8
2023/02/01 06:20:00,77.0,-2.8
2023/02/01 06:30:00,77.0,-2.6
2023/02/01 06:40:00,77.0,-2.5
2023/02/01 06:50:00,77.0,-2.5
2023/02/01 07:00:00,76.9,-2.2
2023/02/01 07:10:00,76.9,-2.2
2023/02/01 07:20:00,76.9,-1.7
2023/02/01 07:30:00,76.8,-2.1
2023/02/01 07:40:00,76.9,-2.0
2023/02/01 07:50:00,76.9,-1.6
2023/02/01 08:00:00,76.8,-1.5
2023/02/01 08:10:00,76.7,-1.4
2023/02/01 08:20:00,76.7,-1.5
2023/02/01 08:30:00,23.0,-1.2
2023/02/01 08:40:00,76.8,-1.0
2023/02/01 08:50:00,76.7,-0.1
2023/02/01 09:00:00,76.6, 0.0
2023/02/01 09:10:00,76.4,-0.1
2023/02/01 09:20:00,76.4, 0.7
2023/02/01 09:30:00,76.4, 1.0
2023/02/01 09:40:00,76.3, 1.7
2023/02/01 09:50:00,76.2, 2.3
2023/02/01 10:00:00,76.1, 2.4
2023/02/01 10:10:00,76.0, 2.0
2023/02/01 10:20:00,75.9, 2.4
2023/02/01 10:30:00,75.7, 3.0
2023/02/01 10:40:00,75.5, 3.2
2023/02/01 10:50:00,75.5, 3.9
2023/02/01 11:00:00,75.2, 3.5
2023/02/01 11:10:00,75.1, 3.5
2023/02/01 11:20:00,74.9, 2.4
2023/02/01 11:30:00,74.7, 2.1
2023/02/01 11:40:00,74.8, 1.8
2023/02/01 11:50:00,74.7, 1.6
2023/02/01 12:00:00,74.6, 1.8
2023/02/01 12:10:00,74.7, 2.8
2023/02/01 12:20:00,74.6, 3.4
2023/02/01 12:30:00,74.5, 2.8
2023/02/01 12:40:00,74.4, 3.3
2023/02/01 12:50:00,74.2, 2.4
2023/02/01 13:00:00,74.1, 3.2
2023/02/01 13:10:00,74.0, 3.7
2023/02/01 13:20:00,73.6, 2.9
2023/02/01 13:30:00,73.4, 3.6
2023/02/01 13:40:00,73.1, 2.5
2023/02/01 13:50:00,72.9, 2.7
2023/02/01 14:00:00,73.1, 4.3
2023/02/01 14:10:00,72.9, 5.5
2023/02/01 14:20:00,72.6, 6.0
2023/02/01 14:30:00,72.2, 5.8
2023/02/01 14:40:00,71.9, 3.7
2023/02/01 14:50:00,71.9, 3.4
2023/02/01 15:00:00,71.8, 3.2
2023/02/01 15:10:00,71.6, 3.1
2023/02/01 15:20:00,71.4, 2.8
2023/02/01 15:30:00,71.3, 2.5
2023/02/01 15:40:00,71.3, 2.4
2023/02/01 15:50:00,71.1, 2.5
2023/02/01 16:00:00,70.9, 2.4
2023/02/01 16:10:00,70.7, 2.1
2023/02/01 16:20:00,70.7, 2.1
2023/02/01 16:30:00,70.7, 2.3
2023/02/01 16:40:00,70.6, 1.7
2023/02/01 16:50:00,70.4, 1.6
2023/02/01 17:00:00,70.2, 1.2
2023/02/01 17:10:00,70.1, 1.3
2023/02/01 17:20:00,70.1, 1.6
2023/02/01 17:30:00,69.8, 1.7
2023/02/01 17:40:00,69.7, 1.7
2023/02/01 17:50:00,69.6, 1.5
2023/02/01 18:00:00,69.6, 1.1
2023/02/01 18:10:00,69.4, 1.2
2023/02/01 18:20:00,69.3, 1.1
2023/02/01 18:30:00,69.1, 1.2
2023/02/01 18:40:00,69.0, 1.5
2023/02/01 18:50:00,68.8, 1.0
2023/02/01 19:00:00,68.6, 1.1
2023/02/01 19:10:00,68.6, 1.3
2023/02/01 19:20:00,68.6, 1.0
2023/02/01 19:30:00,68.8, 1.0
2023/02/01 19:40:00,68.6, 0.8
2023/02/01 19:50:00,68.6, 1.2
2023/02/01 20:00:00,68.6, 1.4
2023/02/01 20:10:00,68.5, 1.4
2023/02/01 20:20:00,68.4, 1.4
2023/02/01 20:30:00,68.4, 1.4
2023/02/01 20:40:00,68.3, 1.3
2023/02/01 20:50:00,68.2, 1.3
2023/02/01 21:00:00,68.1, 1.4
2023/02/01 21:10:00,68.0, 1.4
2023/02/01 21:20:00,67.8, 1.4
2023/02/01 21:30:00,67.7, 1.3
2023/02/01 21:40:00,67.6, 1.1
2023/02/01 21:50:00,67.5, 1.1
2023/02/01 22:00:00,67.4, 1.3
2023/02/01 22:10:00,67.4, 0.9
2023/02/01 22:20:00,67.4, 0.7
2023/02/01 22:30:00,67.2, 0.7
2023/02/01 22:40:00,67.1, 0.6
2023/02/01 22:50:00,67.0, 0.5
2023/02/01 23:00:00,67.0, 0.4
2023/02/01 23:10:00,67.0, 0.4
2023/02/01 23:20:00,66.9, 0.2
2023/02/01 23:30:00,67.0, 0.2
2023/02/01 23:40:00,67.3, 0.3
2023/02/01 23:50:00,67.2, 0.2
